Weather History for Oshkosh, WI

Change the Weather History Date:

Saturday, March 22, 2014

  Actual Average Record
Temperature  
Mean Temperature 28 °F -  
Max Temperature 36 °F 41 °F 73 °F (2012)
Min Temperature 19 °F 22 °F 3 °F (1989)
Degree Days  
Heating Degree Days 36    
Moisture  
Dew Point 19 °F    
Average Humidity 64    
Maximum Humidity 85    
Minimum Humidity 47    
Precipitation  
Precipitation 0.00 in - - ()
Sea Level Pressure  
Sea Level Pressure 30.14 in    
Wind  
Wind Speed 12 mph (NW)    
Max Wind Speed 17 mph    
Max Gust Speed 24 mph    
Visibility 9 miles    
Events      
Averages and records for this station are not official NWS values.
T = Trace of Precipitation, MM = Missing Value Source: NWS Daily Summary

Daily Weather History Graph

Daily Weather History Graph

Search for Another Location

Airport:

Trip Planner

Search our weather history database for the weather conditions in past years. The results will help you decide how hot, cold, wet, or windy it might be!

Date:

Astronomy

Mar. 22, 2014 Rise Set
Actual Time 6:53 AM CDT 7:09 PM CDT
Civil Twilight 6:24 AM CDT 7:37 PM CDT
Nautical Twilight 5:51 AM CDT 8:11 PM CDT
Astronomical Twilight 5:16 AM CDT 8:46 PM CDT
Moon 12:37 AM CDT (3/22) 10:26 AM CDT (3/22)
Length of Visible Light 13h 12m
Length of Day
12h 15m
Waning Gibbous, 65% of the Moon is Illuminated
Mar 22
Waning Gibbous
Mar 23
Last Quarter
Mar 30
New
Apr 7
First Quarter
Apr 15
Full

Hourly Weather History & Observations

Time (CDT) Temp. Windchill Dew Point Humidity Pressure Visibility Wind Dir Wind Speed Gust Speed Precip Events Conditions
12:00 AM 35.1 °F 27.9 °F 30.0 °F 82% 29.82 in 7.0 mi WNW 9.2 mph - N/A   Overcast
12:53 AM 35.1 °F 26.4 °F 30.9 °F 85% 29.87 in 6.0 mi NW 12.7 mph - N/A   Overcast
1:16 AM 35.1 °F 26.4 °F 30.0 °F 82% 29.86 in 6.0 mi NW 12.7 mph - N/A   Haze
1:53 AM 35.1 °F 26.4 °F 30.0 °F 82% 29.91 in 7.0 mi NW 12.7 mph - N/A   Scattered Clouds
2:08 AM 35.1 °F 26.4 °F 30.0 °F 82% 29.89 in 8.0 mi WNW 12.7 mph - N/A   Mostly Cloudy
2:53 AM 34.0 °F 26.6 °F 28.9 °F 82% 29.94 in 9.0 mi WNW 9.2 mph - N/A   Partly Cloudy
3:53 AM 36.0 °F 26.3 °F 26.1 °F 67% 29.97 in 10.0 mi NW 16.1 mph 23.0 mph N/A   Overcast
4:53 AM 35.1 °F 25.9 °F 25.0 °F 67% 29.99 in 10.0 mi NW 13.8 mph - N/A   Overcast
5:53 AM 35.1 °F 27.9 °F 26.1 °F 70% 30.02 in 10.0 mi NW 9.2 mph - N/A   Overcast
6:53 AM 35.1 °F 27.9 °F 25.0 °F 67% 30.06 in 10.0 mi NW 9.2 mph - N/A   Overcast
7:53 AM 33.1 °F 23.9 °F 23.0 °F 66% 30.10 in 10.0 mi NW 12.7 mph 23.0 mph N/A   Overcast
8:43 AM 32.0 °F 23.0 °F 23.0 °F 69% 30.10 in 10.0 mi NW 11.5 mph - N/A   Overcast
8:53 AM 32.0 °F 22.5 °F 23.0 °F 69% 30.14 in 10.0 mi NW 12.7 mph - N/A   Overcast
9:53 AM 30.9 °F 20.7 °F 19.9 °F 64% 30.18 in 10.0 mi NW 13.8 mph - N/A   Overcast
10:53 AM 28.9 °F 17.7 °F 19.9 °F 69% 30.21 in 10.0 mi NNW 15.0 mph - N/A   Overcast
11:36 AM 28.9 °F 17.3 °F 17.1 °F 61% 30.17 in 10.0 mi NW 16.1 mph 23.0 mph N/A   Overcast
11:53 AM 30.0 °F 20.0 °F 17.1 °F 59% 30.22 in 10.0 mi NW 12.7 mph 21.9 mph N/A   Overcast
12:53 PM 30.0 °F 19.5 °F 15.1 °F 54% 30.23 in 10.0 mi WNW 13.8 mph 21.9 mph N/A   Scattered Clouds
1:53 PM 32.0 °F 22.5 °F 14.0 °F 48% 30.23 in 10.0 mi NW 12.7 mph - N/A   Partly Cloudy
2:53 PM 32.0 °F 21.2 °F 16.0 °F 52% 30.23 in 10.0 mi WNW 16.1 mph 24.2 mph N/A   Mostly Cloudy
3:53 PM 30.0 °F 20.0 °F 14.0 °F 51% 30.24 in 10.0 mi NW 12.7 mph 21.9 mph N/A   Partly Cloudy
4:53 PM 28.9 °F 16.9 °F 10.9 °F 47% 30.25 in 10.0 mi WNW 17.3 mph - N/A   Partly Cloudy
5:53 PM 28.0 °F 17.0 °F 10.9 °F 49% 30.27 in 10.0 mi WNW 13.8 mph - N/A   Clear
6:53 PM 25.0 °F 13.1 °F 10.0 °F 53% 30.31 in 10.0 mi West 13.8 mph - N/A   Clear
7:53 PM 23.0 °F 10.1 °F 9.0 °F 55% 30.34 in 10.0 mi WNW 15.0 mph - N/A   Clear
8:53 PM 21.9 °F 8.2 °F 7.0 °F 53% 30.36 in 10.0 mi NW 16.1 mph 20.7 mph N/A   Clear
9:53 PM 21.9 °F 9.8 °F 6.1 °F 51% 30.37 in 10.0 mi NW 12.7 mph 21.9 mph N/A   Clear
10:53 PM 21.0 °F 9.9 °F 7.0 °F 55% 30.40 in 10.0 mi NNW 10.4 mph 20.7 mph N/A   Clear
11:53 PM 19.9 °F 5.7 °F 6.1 °F 55% 30.42 in 10.0 mi North 16.1 mph - N/A   Clear